Time,TemperatureF,DewpointF,PressureIn,WindDirection,WindDirectionDegrees,WindSpeedMPH,WindSpeedGustMPH,Humidity,HourlyPrecipIn,Conditions,Clouds,dailyrainin,SoftwareType,DateUTC
2013-11-23 00:12:00,38.0,34.0,-100.00,North,11,2.0,8.0,84,0.00,,,0.11,,2013-11-23 05:12:00,
2013-11-23 00:23:00,38.0,34.0,-100.00,North,359,2.0,7.0,84,0.00,,,0.11,,2013-11-23 05:23:00,
2013-11-23 00:43:00,37.0,33.0,-100.00,North,354,1.0,6.0,85,0.00,,,0.11,,2013-11-23 05:43:00,
2013-11-23 00:53:00,37.0,33.0,-100.00,NNE,21,3.0,7.0,85,0.00,,,0.11,,2013-11-23 05:53:00,
2013-11-23 01:12:00,36.0,32.0,-100.00,NNW,336,2.0,5.0,86,0.00,,,0.11,,2013-11-23 06:12:00,
2013-11-23 01:22:00,36.0,32.0,-100.00,North,349,2.0,5.0,86,0.00,,,0.11,,2013-11-23 06:22:00,
2013-11-23 01:42:00,36.0,32.0,-100.00,NW,310,2.0,7.0,86,0.00,,,0.11,,2013-11-23 06:42:00,
2013-11-23 01:52:00,36.0,32.0,-100.00,NNE,28,1.0,8.0,86,0.00,,,0.11,,2013-11-23 06:52:00,
2013-11-23 02:11:00,36.0,33.0,-100.00,NNE,14,1.0,7.0,88,0.00,,,0.11,,2013-11-23 07:11:00,
2013-11-23 02:22:00,35.0,32.0,-100.00,WNW,299,3.0,8.0,88,0.00,,,0.11,,2013-11-23 07:22:00,
2013-11-23 02:42:00,35.0,32.0,-100.00,North,359,2.0,10.0,88,0.00,,,0.11,,2013-11-23 07:42:00,
2013-11-23 02:52:00,35.0,32.0,-100.00,NW,318,2.0,7.0,89,0.00,,,0.11,,2013-11-23 07:52:00,
2013-11-23 03:22:00,34.0,31.0,-100.00,NNW,345,0.0,4.0,89,0.00,,,0.11,,2013-11-23 08:22:00,
2013-11-23 03:42:00,34.0,31.0,-100.00,NW,319,3.0,6.0,90,0.00,,,0.10,,2013-11-23 08:42:00,
2013-11-23 03:52:00,33.0,30.0,-100.00,North,4,4.0,7.0,90,0.00,,,0.10,,2013-11-23 08:52:00,
2013-11-23 04:12:00,33.0,30.0,-100.00,NW,314,2.0,8.0,90,0.00,,,0.10,,2013-11-23 09:12:00,
2013-11-23 04:22:00,33.0,30.0,-100.00,NNW,328,4.0,10.0,89,0.00,,,0.10,,2013-11-23 09:22:00,
2013-11-23 04:43:00,33.0,30.0,-100.00,NW,319,4.0,9.0,89,0.00,,,0.09,,2013-11-23 09:43:00,
2013-11-23 04:54:00,33.0,30.0,-100.00,NE,37,1.0,6.0,89,0.00,,,0.09,,2013-11-23 09:54:00,
2013-11-23 05:13:00,33.0,30.0,-100.00,NW,325,3.0,10.0,89,0.00,,,0.09,,2013-11-23 10:13:00,
2013-11-23 05:23:00,33.0,30.0,-100.00,WNW,299,4.0,8.0,89,0.00,,,0.09,,2013-11-23 10:23:00,
2013-11-23 05:42:00,32.0,29.0,-100.00,NW,316,4.0,8.0,89,0.00,,,0.07,,2013-11-23 10:42:00,
2013-11-23 05:52:00,32.0,29.0,-100.00,NNE,14,0.0,10.0,90,0.00,,,0.07,,2013-11-23 10:52:00,
2013-11-23 06:12:00,32.0,29.0,-100.00,NNW,341,4.0,6.0,90,0.00,,,0.07,,2013-11-23 11:12:00,
2013-11-23 06:23:00,31.0,28.0,-100.00,NW,310,4.0,8.0,90,0.00,,,0.07,,2013-11-23 11:23:00,
2013-11-23 06:43:00,31.0,28.0,-100.00,NW,305,3.0,5.0,90,0.00,,,0.06,,2013-11-23 11:43:00,
2013-11-23 06:53:00,30.0,28.0,-100.00,NW,324,1.0,5.0,91,0.00,,,0.06,,2013-11-23 11:53:00,
2013-11-23 07:12:00,30.0,27.0,-100.00,West,281,2.0,7.0,90,0.00,,,0.06,,2013-11-23 12:12:00,
2013-11-23 07:22:00,30.0,27.0,-100.00,West,268,2.0,5.0,90,0.00,,,0.06,,2013-11-23 12:22:00,
2013-11-23 07:42:00,30.0,27.0,-100.00,WNW,292,1.0,4.0,90,0.00,,,0.05,,2013-11-23 12:42:00,
2013-11-23 07:52:00,30.0,27.0,-100.00,WNW,299,2.0,6.0,90,0.00,,,0.05,,2013-11-23 12:52:00,
2013-11-23 08:11:00,30.0,27.0,-100.00,NW,318,4.0,5.0,90,0.00,,,0.05,,2013-11-23 13:11:00,
2013-11-23 08:22:00,30.0,27.0,-100.00,WNW,302,4.0,6.0,90,0.00,,,0.05,,2013-11-23 13:22:00,
2013-11-23 08:42:00,30.0,27.0,-100.00,NW,316,4.0,7.0,90,0.00,,,0.05,,2013-11-23 13:42:00,
2013-11-23 08:52:00,31.0,28.0,-100.00,West,278,5.0,8.0,88,0.00,,,0.05,,2013-11-23 13:52:00,
2013-11-23 09:11:00,31.0,28.0,-100.00,NNW,347,4.0,10.0,88,0.00,,,0.05,,2013-11-23 14:11:00,
2013-11-23 09:22:00,31.0,28.0,-100.00,NW,313,4.0,9.0,88,0.00,,,0.05,,2013-11-23 14:22:00,
2013-11-23 09:42:00,31.0,28.0,-100.00,WSW,238,2.0,7.0,88,0.00,,,0.00,,2013-11-23 14:42:00,
2013-11-23 09:52:00,31.0,27.0,-100.00,NW,308,5.0,10.0,86,0.00,,,0.00,,2013-11-23 14:52:00,
2013-11-23 10:11:00,31.0,27.0,-100.00,WNW,284,6.0,10.0,84,0.00,,,0.00,,2013-11-23 15:11:00,
2013-11-23 10:22:00,32.0,27.0,-100.00,WNW,283,4.0,10.0,82,0.00,,,0.00,,2013-11-23 15:22:00,
2013-11-23 10:43:00,32.0,26.0,-100.00,WSW,247,3.0,8.0,79,0.00,,,0.00,,2013-11-23 15:43:00,
2013-11-23 10:54:00,33.0,26.0,-100.00,NNW,334,5.0,9.0,74,0.00,,,0.00,,2013-11-23 15:54:00,
2013-11-23 11:13:00,34.0,24.0,-100.00,WNW,287,5.0,11.0,67,0.00,,,0.00,,2013-11-23 16:13:00,
2013-11-23 11:23:00,34.0,23.0,-100.00,NW,316,7.0,12.0,64,0.00,,,0.00,,2013-11-23 16:23:00,
2013-11-23 11:43:00,34.0,21.0,-100.00,WNW,298,9.0,14.0,59,0.00,,,0.00,,2013-11-23 16:43:00,
2013-11-23 11:53:00,35.0,22.0,-100.00,WSW,254,6.0,16.0,59,0.00,,,0.00,,2013-11-23 16:53:00,
2013-11-23 12:12:00,35.0,22.0,-100.00,West,270,6.0,18.0,58,0.00,,,0.00,,2013-11-23 17:12:00,
2013-11-23 12:22:00,34.0,21.0,-100.00,NW,317,10.0,15.0,58,0.00,,,0.00,,2013-11-23 17:22:00,
2013-11-23 12:42:00,33.0,20.0,-100.00,WNW,300,10.0,18.0,59,0.00,,,0.00,,2013-11-23 17:42:00,
2013-11-23 12:52:00,33.0,21.0,-100.00,NW,321,11.0,20.0,62,0.00,,,0.00,,2013-11-23 17:52:00,
2013-11-23 13:12:00,33.0,23.0,-100.00,NNW,330,8.0,13.0,66,0.00,,,0.00,,2013-11-23 18:12:00,
2013-11-23 13:22:00,32.0,23.0,-100.00,WNW,283,9.0,12.0,68,0.00,,,0.00,,2013-11-23 18:22:00,
2013-11-23 13:42:00,33.0,23.0,-100.00,NW,319,10.0,20.0,66,0.00,,,0.00,,2013-11-23 18:42:00,
2013-11-23 13:52:00,33.0,24.0,-100.00,WNW,287,8.0,14.0,68,0.00,,,0.00,,2013-11-23 18:52:00,
2013-11-23 14:11:00,33.0,24.0,-100.00,NW,323,9.0,15.0,69,0.00,,,0.00,,2013-11-23 19:11:00,
2013-11-23 14:22:00,32.0,22.0,-100.00,WNW,299,10.0,18.0,66,0.00,,,0.00,,2013-11-23 19:22:00,
2013-11-23 14:42:00,32.0,22.0,-100.00,NNW,334,10.0,15.0,67,0.00,,,0.00,,2013-11-23 19:42:00,
2013-11-23 14:52:00,32.0,21.0,-100.00,WNW,297,10.0,15.0,64,0.00,,,0.00,,2013-11-23 19:52:00,
2013-11-23 15:11:00,33.0,23.0,-100.00,NW,322,9.0,19.0,65,0.00,,,0.00,,2013-11-23 20:11:00,
2013-11-23 15:22:00,33.0,21.0,-100.00,WNW,303,8.0,18.0,62,0.00,,,0.00,,2013-11-23 20:22:00,
2013-11-23 15:42:00,32.0,22.0,-100.00,North,4,8.0,18.0,67,0.00,,,0.00,,2013-11-23 20:42:00,
2013-11-23 15:53:00,32.0,22.0,-100.00,NW,312,7.0,19.0,65,0.00,,,0.00,,2013-11-23 20:53:00,
2013-11-23 16:11:00,30.0,19.0,-100.00,North,359,9.0,18.0,64,0.00,,,0.00,,2013-11-23 21:11:00,
2013-11-23 16:22:00,30.0,19.0,-100.00,WNW,287,11.0,21.0,63,0.00,,,0.00,,2013-11-23 21:22:00,
2013-11-23 16:43:00,30.0,20.0,-100.00,WNW,283,8.0,18.0,65,0.00,,,0.00,,2013-11-23 21:43:00,
2013-11-23 16:53:00,30.0,19.0,-100.00,West,278,10.0,16.0,63,0.00,,,0.00,,2013-11-23 21:53:00,
2013-11-23 17:13:00,29.0,19.0,-100.00,NW,311,7.0,16.0,67,0.00,,,0.00,,2013-11-23 22:13:00,
2013-11-23 17:23:00,29.0,19.0,-100.00,NW,306,9.0,15.0,65,0.00,,,0.00,,2013-11-23 22:23:00,
2013-11-23 17:43:00,28.0,18.0,-100.00,NW,305,7.0,15.0,65,0.00,,,0.00,,2013-11-23 22:43:00,
2013-11-23 17:52:00,28.0,18.0,-100.00,NNE,16,9.0,13.0,66,0.00,,,0.00,,2013-11-23 22:52:00,
2013-11-23 18:12:00,28.0,18.0,-100.00,WNW,291,8.0,21.0,66,0.00,,,0.00,,2013-11-23 23:12:00,
2013-11-23 18:22:00,27.0,18.0,-100.00,NW,326,9.0,15.0,67,0.00,,,0.00,,2013-11-23 23:22:00,
2013-11-23 18:42:00,27.0,17.0,-100.00,WNW,301,9.0,14.0,66,0.00,,,0.00,,2013-11-23 23:42:00,
2013-11-23 18:53:00,26.0,17.0,-100.00,NW,306,8.0,15.0,67,0.00,,,0.00,,2013-11-23 23:53:00,
2013-11-23 19:11:00,26.0,16.0,-100.00,NW,317,10.0,16.0,65,0.00,,,0.00,,2013-11-24 00:11:00,
2013-11-23 19:22:00,25.0,15.0,-100.00,NW,304,9.0,21.0,65,0.00,,,0.00,,2013-11-24 00:22:00,
2013-11-23 19:42:00,25.0,15.0,-100.00,WNW,298,10.0,14.0,64,0.00,,,0.00,,2013-11-24 00:42:00,
2013-11-23 19:52:00,25.0,15.0,-100.00,NW,320,9.0,14.0,66,0.00,,,0.00,,2013-11-24 00:52:00,
2013-11-23 20:11:00,25.0,15.0,-100.00,NW,309,9.0,20.0,66,0.00,,,0.00,,2013-11-24 01:11:00,
2013-11-23 20:22:00,25.0,16.0,-100.00,NNW,332,8.0,15.0,69,0.00,,,0.00,,2013-11-24 01:22:00,
2013-11-23 20:42:00,25.0,17.0,-100.00,NNW,332,7.0,19.0,71,0.00,,,0.00,,2013-11-24 01:42:00,
2013-11-23 20:53:00,25.0,17.0,-100.00,West,279,9.0,15.0,71,0.00,,,0.00,,2013-11-24 01:53:00,
2013-11-23 21:12:00,25.0,17.0,-100.00,NNW,343,6.0,14.0,70,0.00,,,0.00,,2013-11-24 02:12:00,
2013-11-23 21:22:00,24.0,15.0,-100.00,NW,313,6.0,15.0,69,0.00,,,0.00,,2013-11-24 02:22:00,
2013-11-23 21:42:00,24.0,16.0,-100.00,NNE,13,8.0,16.0,72,0.00,,,0.00,,2013-11-24 02:42:00,
2013-11-23 21:52:00,24.0,16.0,-100.00,NNE,13,8.0,16.0,72,0.00,,,0.00,,2013-11-24 02:52:00,
2013-11-23 22:11:00,24.0,15.0,-100.00,North,359,6.0,13.0,69,0.00,,,0.00,,2013-11-24 03:11:00,
2013-11-23 22:22:00,24.0,14.0,-100.00,NW,306,9.0,14.0,65,0.00,,,0.00,,2013-11-24 03:22:00,
2013-11-23 22:43:00,23.0,15.0,-100.00,North,9,7.0,12.0,71,0.00,,,0.00,,2013-11-24 03:43:00,
2013-11-23 22:54:00,23.0,15.0,-100.00,NNW,330,8.0,15.0,71,0.00,,,0.00,,2013-11-24 03:54:00,
2013-11-23 23:03:00,-999.0,-99.9,-100.00,NE,39,6.0,18.0,-999,0.00,,,0.00,,2013-11-24 04:03:00,
2013-11-23 23:13:00,23.0,13.0,-100.00,NE,39,6.0,18.0,64,0.00,,,0.00,,2013-11-24 04:13:00,
2013-11-23 23:23:00,23.0,13.0,-100.00,NNW,340,2.0,10.0,64,0.00,,,0.00,,2013-11-24 04:23:00,
2013-11-23 23:42:00,23.0,13.0,-100.00,North,359,6.0,14.0,66,0.00,,,0.00,,2013-11-24 04:42:00,
2013-11-23 23:53:00,23.0,14.0,-100.00,NNE,21,4.0,11.0,69,0.00,,,0.00,,2013-11-24 04:53:00,